{"data":{"norad_id":60303,"intl_designator":"2024-133C","name":"STARLINK-11227 [DTC]","alt_names":[],"object_type":"PAYLOAD","status":"ACTIVE","operator":null,"country":"US","launch_date":"2024-07-28","launch_site_code":"AFWTR","launch_vehicle":null,"mission":null,"orbit_class":"UNKNOWN","rcs_meters":null,"size_class":null,"mass_kg":null,"dimensions":null,"purposes":["comms"],"wikipedia_slug":null,"has_3d_model":false,"image_url":null,"decayed_at":null,"tle_current":{"epoch":"2026-09-21T00:47:55.126752Z","epoch_age_seconds":139559,"freshness":"FRESH","line1":"1 60303U 24133C   26264.03327693 -.00000375  00000+0  17565-5 0  9992","line2":"2 60303  53.1579 263.3501 0000883  76.9034 283.2083 15.69706822124494","mean_motion":15.69706822,"eccentricity":8.83e-5,"inclination_deg":53.1579,"raan_deg":263.3501,"arg_perigee_deg":76.9034,"mean_anomaly_deg":283.2083,"bstar":1.7565e-6,"rev_number":12449,"period_min":91.736875945106,"perigee_km":359.14089048247,"apogee_km":360.33079882683,"semimajor_km":6737.8728446547,"source":"CELESTRAK","updated_at":"2026-09-22T09:00:49.196815Z"}}}